User: anonymous   Login
Location: Owatonna
(44.0840°N, 93.2260°W)
Time: 02:04:53
(UTC-06:00)
Language:

Cosmos 1500 Rocket - Orbit

View from above orbital plane
View from above orbital plane
View from above satellite
View from above satellite

Ground track
Ground track

The orbit data is extracted from the following two-line orbital elements,

1 14373U 83099B   14352.20176937  .00000448  00000-0  51699-4 0  8514
2 14373 082.5400 016.6428 0019869 000.1932 044.0225 14.83275470685663
Epoch (UTC): 18 December 2014 04:50:32
Eccentricity: 0.0019869
inclination: 82.5400°
perigee height: 605 km
apogee height: 633 km
right ascension of ascending node: 16.6428°
argument of perigee: 0.1932°
revolutions per day: 14.83275470
mean anomaly at epoch: 44.0225°
orbit number at epoch: 68566

The dashed part of the orbit path shows where the satellite is in the earth's shadow,  

DLR